{"data":{"norad_id":59848,"intl_designator":"2024-097P","name":"STARLINK-31859","alt_names":[],"object_type":"PAYLOAD","status":"ACTIVE","operator":null,"country":"US","launch_date":"2024-05-23","launch_site_code":"AFETR","launch_vehicle":null,"mission":null,"orbit_class":"UNKNOWN","rcs_meters":null,"size_class":null,"mass_kg":null,"dimensions":null,"purposes":["comms"],"wikipedia_slug":null,"has_3d_model":false,"image_url":null,"decayed_at":null,"tle_current":{"epoch":"2026-09-21T15:23:42.820512Z","epoch_age_seconds":75911,"freshness":"FRESH","line1":"1 59848U 24097P   26264.64146783  .00038802  00000+0  11934-2 0  9995","line2":"2 59848  42.9977 239.1869 0005273 138.2995 221.8262 15.33009038131983","mean_motion":15.33009038,"eccentricity":0.0005273,"inclination_deg":42.9977,"raan_deg":239.1869,"arg_perigee_deg":138.2995,"mean_anomaly_deg":221.8262,"bstar":0.0011934,"rev_number":13198,"period_min":93.932910002844,"perigee_km":463.23124136597,"apogee_km":470.44995474087,"semimajor_km":6844.9775980534,"source":"CELESTRAK","updated_at":"2026-09-22T09:00:49.097801Z"}}}